| time (UTC) | temp C | wind direction | speed KPH | gust KPH | rain 1hr cm | rain 24hr cm | rain mn cm | humidity % | barometer mb |
| 20260507085115 | 18 | 215 | 1.6 | 3.2 | 0.00 | 0.00 | 0.00 | 92 | 1011.9 |
| 20260507081233 | 19 | 225 | 3.2 | 12.9 | 0.00 | 0.00 | 0.00 | 100 | 1011.5 |
| 20260507062747 | 13 | 182 | 0.0 | 0.0 | 0.00 | 0.00 | 0.00 | 100 | 1011.2 |
| 20260507062240 | 12 | 217 | 0.0 | 1.6 | 0.00 | 0.00 | 0.00 | 100 | 1011.1 |
| 20260507061733 | 12 | 185 | 0.0 | 1.6 | 0.00 | 0.00 | 0.00 | 100 | 1011.1 |
| 20260507061225 | 12 | 173 | 1.6 | 6.4 | 0.00 | 0.00 | 0.00 | 100 | 1011.2 |
| 20260507060718 | 12 | 227 | 0.0 | 3.2 | 0.00 | 0.00 | 0.00 | 100 | 1011.1 |
| 20260507060211 | 12 | 213 | 0.0 | 1.6 | 0.00 | 0.00 | 0.00 | 100 | 1011.1 |
| 20260507055704 | 11 | 204 | 0.0 | 0.0 | 0.00 | 0.00 | 0.00 | 100 | 1011.0 |
| 20260507055157 | 11 | 187 | 0.0 | 3.2 | 0.00 | 0.00 | 0.00 | 100 | 1010.9 |
| 20260507054650 | 10 | 216 | 0.0 | 0.0 | 0.00 | 0.00 | 0.00 | 100 | 1010.9 |
| 20260507054143 | 10 | 148 | 0.0 | 1.6 | 0.00 | 0.00 | 0.00 | 100 | 1010.8 |
| 20260507053636 | 10 | 200 | 0.0 | 0.0 | 0.00 | 0.00 | 0.00 | 100 | 1010.7 |
| 20260507053129 | 10 | 193 | 0.0 | 0.0 | 0.00 | 0.00 | 0.00 | 100 | 1010.7 |
| 20260507052622 | 9 | 215 | 0.0 | 0.0 | 0.00 | 0.00 | 0.00 | 100 | 1010.7 |
| 20260507052115 | 9 | 193 | 0.0 | 0.0 | 0.00 | 0.00 | 0.00 | 100 | 1010.6 |
| 20260507051608 | 8 | 184 | 0.0 | 0.0 | 0.00 | 0.00 | 0.00 | 100 | 1010.5 |
| 20260507051101 | 8 | 194 | 0.0 | 0.0 | 0.00 | 0.00 | 0.00 | 100 | 1010.5 |
| 20260507050554 | 8 | 181 | 0.0 | 0.0 | 0.00 | 0.00 | 0.00 | 100 | 1010.4 |
| 20260507050047 | 8 | 193 | 0.0 | 0.0 | 0.00 | 0.00 | 0.00 | 100 | 1010.4 |
| 20260507045540 | 8 | 180 | 0.0 | 0.0 | 0.00 | 0.00 | 0.00 | 100 | 1010.3 |
| 20260507045033 | 8 | 212 | 0.0 | 0.0 | 0.00 | 0.00 | 0.00 | 100 | 1010.2 |
| 20260507044526 | 8 | 225 | 0.0 | 0.0 | 0.00 | 0.00 | 0.00 | 100 | 1010.0 |
| 20260507044019 | 8 | 225 | 0.0 | 0.0 | 0.00 | 0.00 | 0.00 | 100 | 1010.0 |
| 20260507043512 | 7 | 225 | 0.0 | 0.0 | 0.00 | 0.00 | 0.00 | 100 | 1009.9 |
| 20260507043005 | 7 | 225 | 0.0 | 0.0 | 0.00 | 0.00 | 0.00 | 100 | 1009.8 |
| 20260507042459 | 7 | 210 | 0.0 | 0.0 | 0.00 | 0.00 | 0.00 | 100 | 1009.8 |
| 20260507041952 | 7 | 209 | 0.0 | 0.0 | 0.00 | 0.00 | 0.00 | 100 | 1009.7 |
| 20260507041445 | 7 | 180 | 0.0 | 0.0 | 0.00 | 0.00 | 0.00 | 100 | 1009.7 |
| 20260507040938 | 7 | 180 | 0.0 | 0.0 | 0.00 | 0.00 | 0.00 | 100 | 1009.6 |
| 20260507040431 | 7 | 180 | 0.0 | 0.0 | 0.00 | 0.00 | 0.00 | 100 | 1009.6 |
| 20260507035924 | 7 | 193 | 0.0 | 0.0 | 0.00 | 0.00 | 0.00 | 100 | 1009.5 |
| 20260507035417 | 7 | 177 | 0.0 | 0.0 | 0.00 | 0.00 | 0.00 | 100 | 1009.5 |
| 20260507034911 | 7 | 229 | 0.0 | 0.0 | 0.00 | 0.00 | 0.00 | 100 | 1009.3 |
| 20260507034404 | 7 | 230 | 0.0 | 0.0 | 0.00 | 0.00 | 0.00 | 100 | 1009.3 |
| 20260507033857 | 7 | 217 | 0.0 | 0.0 | 0.00 | 0.00 | 0.00 | 100 | 1009.3 |
| 20260507033350 | 7 | 228 | 0.0 | 0.0 | 0.00 | 0.00 | 0.00 | 100 | 1009.2 |
| 20260507032843 | 7 | 173 | 0.0 | 0.0 | 0.00 | 0.00 | 0.00 | 100 | 1009.2 |
| 20260507032336 | 7 | 135 | 0.0 | 0.0 | 0.00 | 0.00 | 0.00 | 100 | 1009.3 |
| 20260507031829 | 7 | 139 | 0.0 | 0.0 | 0.00 | 0.00 | 0.00 | 100 | 1009.3 |
| 20260507031322 | 7 | 218 | 0.0 | 0.0 | 0.00 | 0.00 | 0.00 | 100 | 1009.2 |
| 20260507030816 | 7 | 266 | 0.0 | 0.0 | 0.00 | 0.00 | 0.00 | 100 | 1009.2 |
| 20260507030309 | 7 | 180 | 0.0 | 0.0 | 0.00 | 0.00 | 0.00 | 100 | 1009.2 |
| 20260507025802 | 7 | 180 | 0.0 | 0.0 | 0.00 | 0.00 | 0.00 | 100 | 1009.1 |
| 20260507025255 | 7 | 180 | 0.0 | 0.0 | 0.00 | 0.00 | 0.00 | 100 | 1009.0 |
| 20260507024748 | 7 | 180 | 0.0 | 0.0 | 0.00 | 0.00 | 0.00 | 100 | 1009.0 |
| 20260507024241 | 7 | 180 | 0.0 | 0.0 | 0.00 | 0.00 | 0.00 | 100 | 1009.0 |
| 20260507023734 | 7 | 180 | 0.0 | 0.0 | 0.00 | 0.00 | 0.00 | 100 | 1008.9 |
| 20260507023227 | 7 | 180 | 0.0 | 0.0 | 0.00 | 0.00 | 0.00 | 100 | 1008.9 |
| 20260507022721 | 7 | 183 | 0.0 | 0.0 | 0.00 | 0.00 | 0.00 | 100 | 1008.9 |
| 20260507022214 | 7 | 225 | 0.0 | 0.0 | 0.00 | 0.00 | 0.00 | 100 | 1008.8 |
| 20260507021707 | 7 | 180 | 0.0 | 0.0 | 0.00 | 0.00 | 0.00 | 100 | 1008.7 |
| 20260507021200 | 7 | 180 | 0.0 | 0.0 | 0.00 | 0.00 | 0.00 | 100 | 1008.7 |
| 20260507020653 | 7 | 203 | 0.0 | 0.0 | 0.00 | 0.00 | 0.00 | 100 | 1008.7 |
| 20260507020146 | 7 | 225 | 0.0 | 0.0 | 0.00 | 0.00 | 0.00 | 100 | 1008.8 |
| 20260507015639 | 8 | 222 | 0.0 | 0.0 | 0.00 | 0.00 | 0.00 | 100 | 1008.8 |
| 20260507015132 | 8 | 222 | 0.0 | 0.0 | 0.00 | 0.00 | 0.00 | 100 | 1008.8 |
| 20260507014625 | 8 | 270 | 0.0 | 0.0 | 0.00 | 0.00 | 0.00 | 100 | 1008.8 |
| 20260507014118 | 8 | 270 | 0.0 | 0.0 | 0.00 | 0.00 | 0.00 | 100 | 1008.7 |
| 20260507013611 | 8 | 270 | 0.0 | 0.0 | 0.00 | 0.00 | 0.00 | 100 | 1008.6 |
| 20260507013105 | 8 | 270 | 0.0 | 0.0 | 0.00 | 0.00 | 0.00 | 100 | 1008.7 |
| 20260507012558 | 8 | 270 | 0.0 | 0.0 | 0.00 | 0.00 | 0.00 | 100 | 1008.7 |
| 20260507012051 | 8 | 270 | 0.0 | 0.0 | 0.00 | 0.00 | 0.00 | 100 | 1008.7 |
| 20260507011544 | 8 | 244 | 0.0 | 0.0 | 0.00 | 0.00 | 0.00 | 100 | 1008.7 |
| 20260507011037 | 8 | 225 | 0.0 | 0.0 | 0.00 | 0.00 | 0.00 | 100 | 1008.8 |
| 20260507010530 | 8 | 225 | 0.0 | 0.0 | 0.00 | 0.00 | 0.00 | 100 | 1008.7 |
| 20260507010023 | 8 | 225 | 0.0 | 0.0 | 0.00 | 0.00 | 0.00 | 100 | 1008.5 |
| 20260507005516 | 8 | 193 | 0.0 | 0.0 | 0.00 | 0.00 | 0.00 | 100 | 1008.4 |
| 20260507005009 | 8 | 170 | 0.0 | 0.0 | 0.00 | 0.00 | 0.00 | 100 | 1008.3 |
| 20260507004502 | 8 | 180 | 0.0 | 0.0 | 0.00 | 0.00 | 0.00 | 100 | 1008.3 |
| 20260507003955 | 9 | 97 | 0.0 | 0.0 | 0.00 | 0.00 | 0.00 | 100 | 1008.1 |
| 20260507003448 | 9 | 97 | 0.0 | 0.0 | 0.00 | 0.00 | 0.00 | 100 | 1008.2 |
| 20260507002941 | 9 | 187 | 0.0 | 0.0 | 0.00 | 0.00 | 0.00 | 100 | 1008.2 |
| 20260507002434 | 10 | 154 | 0.0 | 0.0 | 0.00 | 0.00 | 0.00 | 100 | 1008.2 |
| 20260507001927 | 10 | 163 | 0.0 | 0.0 | 0.00 | 0.00 | 0.00 | 100 | 1008.2 |
| 20260507001420 | 10 | 171 | 0.0 | 6.4 | 0.00 | 0.00 | 0.00 | 100 | 1008.3 |
| 20260507000913 | 10 | 176 | 0.0 | 0.0 | 0.00 | 0.00 | 0.00 | 100 | 1008.4 |
| 20260507000406 | 10 | 165 | 0.0 | 4.8 | 0.00 | 0.00 | 0.00 | 100 | 1008.3 |
| 20260506235859 | 10 | 223 | 1.6 | 4.8 | 0.00 | 0.00 | 0.00 | 100 | 1008.3 |
| 20260506235352 | 10 | 144 | 0.0 | 0.0 | 0.00 | 0.00 | 0.00 | 100 | 1008.2 |
| 20260506234845 | 10 | 168 | 0.0 | 0.0 | 0.00 | 0.00 | 0.00 | 100 | 1008.1 |
| 20260506234338 | 10 | 180 | 0.0 | 0.0 | 0.00 | 0.00 | 0.00 | 100 | 1008.1 |
| 20260506233831 | 10 | 180 | 0.0 | 0.0 | 0.00 | 0.00 | 0.00 | 100 | 1008.1 |
| 20260506233324 | 10 | 180 | 0.0 | 0.0 | 0.00 | 0.00 | 0.00 | 100 | 1008.0 |
| 20260506232817 | 10 | 180 | 0.0 | 0.0 | 0.00 | 0.00 | 0.00 | 100 | 1008.0 |
| 20260506232310 | 10 | 180 | 0.0 | 0.0 | 0.00 | 0.00 | 0.00 | 100 | 1008.0 |
| 20260506231803 | 10 | 180 | 0.0 | 0.0 | 0.00 | 0.00 | 0.00 | 100 | 1007.9 |
| 20260506231256 | 10 | 180 | 0.0 | 0.0 | 0.00 | 0.00 | 0.00 | 100 | 1007.9 |
| 20260506230749 | 10 | 180 | 0.0 | 0.0 | 0.00 | 0.00 | 0.00 | 100 | 1007.9 |
| 20260506230241 | 10 | 204 | 0.0 | 0.0 | 0.00 | 0.00 | 0.00 | 100 | 1007.8 |
| 20260506225734 | 10 | 180 | 0.0 | 0.0 | 0.00 | 0.00 | 0.00 | 100 | 1007.7 |
| 20260506225227 | 10 | 180 | 0.0 | 0.0 | 0.00 | 0.00 | 0.00 | 100 | 1007.6 |
| 20260506224721 | 10 | 218 | 0.0 | 0.0 | 0.00 | 0.00 | 0.00 | 100 | 1007.5 |
| 20260506224213 | 10 | 225 | 0.0 | 0.0 | 0.00 | 0.00 | 0.00 | 100 | 1007.5 |
| 20260506223706 | 10 | 225 | 0.0 | 0.0 | 0.00 | 0.00 | 0.00 | 100 | 1007.5 |
| 20260506223159 | 10 | 222 | 0.0 | 0.0 | 0.00 | 0.00 | 0.00 | 100 | 1007.4 |
| 20260506222652 | 11 | 228 | 0.0 | 0.0 | 0.00 | 0.00 | 0.00 | 100 | 1007.4 |
| 20260506222145 | 11 | 300 | 0.0 | 0.0 | 0.00 | 0.00 | 0.00 | 100 | 1007.3 |
| 20260506221638 | 11 | 225 | 0.0 | 0.0 | 0.00 | 0.00 | 0.00 | 100 | 1007.4 |
| 20260506221131 | 11 | 220 | 0.0 | 0.0 | 0.00 | 0.00 | 0.00 | 100 | 1007.4 |
| 20260506220624 | 11 | 174 | 0.0 | 0.0 | 0.00 | 0.00 | 0.00 | 100 | 1007.3 |
| 20260506220117 | 11 | 229 | 0.0 | 0.0 | 0.00 | 0.00 | 0.00 | 100 | 1007.5 |
| 20260506215610 | 11 | 199 | 0.0 | 0.0 | 0.00 | 0.00 | 0.00 | 100 | 1007.4 |
| 20260506215102 | 10 | 237 | 1.6 | 3.2 | 0.00 | 0.00 | 0.00 | 100 | 1007.2 |
| 20260506214555 | 10 | 225 | 0.0 | 0.0 | 0.00 | 0.00 | 0.00 | 100 | 1007.1 |
| 20260506214048 | 11 | 225 | 0.0 | 0.0 | 0.00 | 0.00 | 0.00 | 100 | 1006.9 |
| 20260506213541 | 11 | 225 | 0.0 | 0.0 | 0.00 | 0.00 | 0.00 | 100 | 1006.6 |
| 20260506213034 | 11 | 215 | 0.0 | 0.0 | 0.00 | 0.00 | 0.00 | 100 | 1006.5 |
| 20260506212527 | 11 | 180 | 0.0 | 0.0 | 0.00 | 0.00 | 0.00 | 100 | 1006.5 |
| 20260506212020 | 11 | 180 | 0.0 | 0.0 | 0.00 | 0.00 | 0.00 | 100 | 1006.5 |
| 20260506211513 | 11 | 207 | 0.0 | 0.0 | 0.00 | 0.00 | 0.00 | 100 | 1006.4 |
| 20260506211006 | 11 | 198 | 0.0 | 0.0 | 0.00 | 0.00 | 0.00 | 100 | 1006.4 |
| 20260506210459 | 11 | 296 | 1.6 | 8.0 | 0.00 | 0.00 | 0.00 | 100 | 1006.4 |
| 20260506205952 | 11 | 225 | 0.0 | 0.0 | 0.00 | 0.00 | 0.00 | 100 | 1006.5 |
| 20260506205445 | 11 | 225 | 0.0 | 0.0 | 0.00 | 0.00 | 0.00 | 100 | 1006.4 |
| 20260506204937 | 11 | 316 | 0.0 | 0.0 | 0.00 | 0.00 | 0.00 | 100 | 1005.8 |
| 20260506204430 | 11 | 310 | 0.0 | 0.0 | 0.00 | 0.00 | 0.00 | 100 | 1005.5 |
| 20260506203923 | 11 | 182 | 0.0 | 0.0 | 0.00 | 0.00 | 0.00 | 100 | 1005.9 |
| 20260506203416 | 11 | 228 | 0.0 | 0.0 | 0.00 | 0.00 | 0.00 | 100 | 1006.0 |
| 20260506202909 | 11 | 341 | 0.0 | 0.0 | 0.00 | 0.00 | 0.00 | 100 | 1006.0 |
| 20260506202402 | 11 | 236 | 0.0 | 0.0 | 0.00 | 0.00 | 0.00 | 100 | 1006.0 |
| 20260506155327 | 20 | 139 | 1.6 | 11.3 | 0.00 | 0.00 | 0.00 | 68 | 1003.5 |
| 20260506154801 | 21 | 29 | 1.6 | 3.2 | 0.00 | 0.00 | 0.00 | 64 | 1003.5 |
| 20260506154236 | 22 | 160 | 0.0 | 0.0 | 0.00 | 0.00 | 0.00 | 62 | 1003.4 |
| 20260506153728 | 22 | 162 | 1.6 | 8.0 | 0.00 | 0.00 | 0.00 | 61 | 1003.5 |
| 20260506153220 | 23 | 85 | 0.0 | 0.0 | 0.00 | 0.00 | 0.00 | 62 | 1003.7 |
| 20260506152712 | 23 | 147 | 0.0 | 0.0 | 0.00 | 0.00 | 0.00 | 59 | 1003.6 |
| 20260506152146 | 24 | 157 | 0.0 | 0.0 | 0.00 | 0.00 | 0.00 | 60 | 1003.6 |
| 20260506151620 | 25 | 115 | 0.0 | 0.0 | 0.00 | 0.00 | 0.00 | 52 | 1003.6 |
| 20260506151054 | 26 | 187 | 0.0 | 3.2 | 0.00 | 0.00 | 0.00 | 44 | 1003.5 |
| 20260506150546 | 27 | 102 | 0.0 | 0.0 | 0.00 | 0.00 | 0.00 | 51 | 1003.5 |
| 20260506150037 | 27 | 147 | 1.6 | 11.3 | 0.00 | 0.00 | 0.00 | 50 | 1003.6 |
| 20260506145511 | 27 | 131 | 1.6 | 4.8 | 0.00 | 0.00 | 0.00 | 46 | 1003.6 |
| 20260506145003 | 27 | 118 | 1.6 | 4.8 | 0.00 | 0.00 | 0.00 | 43 | 1003.6 |
| 20260506144454 | 26 | 111 | 1.6 | 8.0 | 0.00 | 0.00 | 0.00 | 52 | 1003.7 |
| 20260506143946 | 24 | 140 | 1.6 | 6.4 | 0.00 | 0.00 | 0.00 | 56 | 1003.9 |
| 20260506143438 | 23 | 122 | 1.6 | 4.8 | 0.00 | 0.00 | 0.00 | 51 | 1004.0 |
| 20260506142930 | 23 | 144 | 1.6 | 6.4 | 0.00 | 0.00 | 0.00 | 50 | 1004.1 |
| 20260506142422 | 25 | 171 | 3.2 | 12.9 | 0.00 | 0.00 | 0.00 | 51 | 1004.3 |
| 20260506141914 | 26 | 163 | 0.0 | 3.2 | 0.00 | 0.00 | 0.00 | 51 | 1004.2 |
| 20260506141405 | 27 | 148 | 1.6 | 6.4 | 0.00 | 0.00 | 0.00 | 44 | 1004.2 |
| 20260506140857 | 27 | 175 | 0.0 | 0.0 | 0.00 | 0.00 | 0.00 | 58 | 1004.2 |
| 20260506140348 | 26 | 173 | 1.6 | 8.0 | 0.00 | 0.00 | 0.00 | 49 | 1004.2 |
| 20260506135840 | 26 | 164 | 1.6 | 6.4 | 0.00 | 0.00 | 0.00 | 45 | 1004.2 |
| 20260506135332 | 25 | 188 | 3.2 | 12.9 | 0.00 | 0.00 | 0.00 | 46 | 1004.3 |
| 20260506134823 | 25 | 164 | 3.2 | 12.9 | 0.00 | 0.00 | 0.00 | 41 | 1004.4 |
| 20260506134315 | 27 | 110 | 1.6 | 3.2 | 0.00 | 0.00 | 0.00 | 48 | 1004.4 |
| 20260506133807 | 28 | 110 | 0.0 | 0.0 | 0.00 | 0.00 | 0.00 | 58 | 1004.5 |
| 20260506133258 | 27 | 168 | 1.6 | 9.7 | 0.00 | 0.00 | 0.00 | 55 | 1004.5 |
| 20260506132750 | 27 | 149 | 1.6 | 8.0 | 0.00 | 0.00 | 0.00 | 46 | 1004.5 |
| 20260506132242 | 26 | 131 | 1.6 | 6.4 | 0.00 | 0.00 | 0.00 | 49 | 1004.6 |
| 20260506131733 | 25 | 170 | 1.6 | 9.7 | 0.00 | 0.00 | 0.00 | 48 | 1004.6 |
| 20260506131225 | 26 | 115 | 1.6 | 11.3 | 0.00 | 0.00 | 0.00 | 54 | 1004.7 |
| 20260506130717 | 26 | 103 | 1.6 | 4.8 | 0.00 | 0.00 | 0.00 | 52 | 1004.8 |
| 20260506130208 | 27 | 142 | 0.0 | 1.6 | 0.00 | 0.00 | 0.00 | 52 | 1004.9 |
| 20260506125700 | 28 | 109 | 0.0 | 3.2 | 0.00 | 0.00 | 0.00 | 53 | 1004.9 |
| 20260506125151 | 27 | 99 | 1.6 | 11.3 | 0.00 | 0.00 | 0.00 | 48 | 1005.0 |
| 20260506124625 | 28 | 92 | 3.2 | 12.9 | 0.00 | 0.00 | 0.00 | 47 | 1005.1 |
| 20260506124059 | 28 | 152 | 3.2 | 19.3 | 0.00 | 0.00 | 0.00 | 47 | 1005.1 |
| 20260506123550 | 29 | 121 | 3.2 | 6.4 | 0.00 | 0.00 | 0.00 | 43 | 1005.2 |
| 20260506123042 | 30 | 78 | 1.6 | 9.7 | 0.00 | 0.00 | 0.00 | 55 | 1005.2 |
| 20260506122533 | 30 | 120 | 1.6 | 6.4 | 0.00 | 0.00 | 0.00 | 52 | 1005.3 |
| 20260506122007 | 28 | 128 | 1.6 | 3.2 | 0.00 | 0.00 | 0.00 | 53 | 1005.5 |
| 20260506121441 | 27 | 128 | 1.6 | 8.0 | 0.00 | 0.00 | 0.00 | 57 | 1005.6 |
| 20260506120915 | 27 | 92 | 0.0 | 3.2 | 0.00 | 0.00 | 0.00 | 56 | 1005.7 |
| 20260506120349 | 28 | 146 | 3.2 | 11.3 | 0.00 | 0.00 | 0.00 | 49 | 1005.8 |
| 20260506115823 | 27 | 126 | 1.6 | 9.7 | 0.00 | 0.00 | 0.00 | 53 | 1005.9 |
| 20260506115257 | 28 | 109 | 1.6 | 4.8 | 0.00 | 0.00 | 0.00 | 68 | 1005.9 |
| 20260506114748 | 28 | 132 | 1.6 | 8.0 | 0.00 | 0.00 | 0.00 | 65 | 1006.1 |
| 20260506114222 | 28 | 110 | 0.0 | 0.0 | 0.00 | 0.00 | 0.00 | 71 | 1006.2 |
| 20260506113656 | 28 | 103 | 1.6 | 8.0 | 0.00 | 0.00 | 0.00 | 70 | 1006.2 |
| 20260506113147 | 28 | 140 | 0.0 | 3.2 | 0.00 | 0.00 | 0.00 | 79 | 1006.3 |
| 20260506112621 | 28 | 102 | 0.0 | 4.8 | 0.00 | 0.00 | 0.00 | 73 | 1006.3 |
| 20260506112055 | 28 | 136 | 1.6 | 3.2 | 0.00 | 0.00 | 0.00 | 78 | 1006.4 |
| 20260506111529 | 27 | 117 | 1.6 | 3.2 | 0.00 | 0.00 | 0.00 | 68 | 1006.6 |
| 20260506111003 | 27 | 179 | 0.0 | 3.2 | 0.00 | 0.00 | 0.00 | 77 | 1006.7 |
| 20260506110437 | 26 | 151 | 1.6 | 6.4 | 0.00 | 0.00 | 0.00 | 55 | 1006.7 |
| 20260506105911 | 26 | 166 | 0.0 | 3.2 | 0.00 | 0.00 | 0.00 | 77 | 1006.7 |
| 20260506105345 | 26 | 140 | 0.0 | 1.6 | 0.00 | 0.00 | 0.00 | 59 | 1006.8 |
| 20260506104819 | 26 | 142 | 1.6 | 6.4 | 0.00 | 0.00 | 0.00 | 83 | 1006.9 |
| 20260506104253 | 27 | 132 | 1.6 | 6.4 | 0.00 | 0.00 | 0.00 | 79 | 1006.9 |
| 20260506103727 | 27 | 95 | 1.6 | 6.4 | 0.00 | 0.00 | 0.00 | 80 | 1006.9 |
| 20260506103201 | 27 | 123 | 1.6 | 4.8 | 0.00 | 0.00 | 0.00 | 69 | 1007.0 |
| 20260506102635 | 27 | 134 | 0.0 | 1.6 | 0.00 | 0.00 | 0.00 | 87 | 1007.1 |
| 20260506102109 | 26 | 128 | 1.6 | 3.2 | 0.00 | 0.00 | 0.00 | 86 | 1007.0 |
| 20260506101543 | 26 | 143 | 0.0 | 1.6 | 0.00 | 0.00 | 0.00 | 93 | 1007.1 |
| 20260506101018 | 26 | 112 | 1.6 | 4.8 | 0.00 | 0.00 | 0.00 | 77 | 1007.1 |